Terminal Aerodrome Forecast
Issued by NWS Blacksburg, VA

Home | Current Version | Previous Version | Text Only | Print | Product List | Glossary On
Versions: 1 2 3 4 5 6 7 8 9 10 11 12 13 14 15 16 17 18 19 20 21 22 23 24
000
FTUS41 KRNK 301731
TAFDAN
TAF
KDAN 301731Z 3018/3118 21004KT P6SM VCSH SCT045 OVC120
     FM310200 00000KT P6SM OVC080
     FM310800 VRB03KT P6SM VCSH SCT025 OVC040
     FM311400 20003KT P6SM OVC035=

USA.gov is the U.S. government's official web portal to all federal, state and local government web resources and services.